This is the latest recevied weather packets stored in our database for station/object EB2EMZ-14. If no packets are shown the sender has not sent any weather packets the latest 1 day(s).
| Time | Temp. | Humidity | Pressure | Rain* | Wind** | Luminosity | Snow |
|---|---|---|---|---|---|---|---|
| 1777979708 | 15° C | 69% | 1011.5 hPa | 0 mm | 0 m/s | 0 W/m² | - |
| 1777979409 | 14.44° C | 68% | 1011.7 hPa | 0 mm | 0 m/s | 0 W/m² | - |
| 1777979109 | 14.44° C | 67% | 1011.6 hPa | 0 mm | 0 m/s | 0 W/m² | - |
| 1777978808 | 15° C | 65% | 1011.7 hPa | 0 mm | 0 m/s | 0 W/m² | - |
| 1777978508 | 16.11° C | 63% | 1011.8 hPa | 0 mm | 0.45 m/s, 351° | 0 W/m² | - |
| 1777978208 | 16.67° C | 63% | 1011.8 hPa | 0 mm | 0 m/s | 0 W/m² | - |
| 1777977907 | 17.22° C | 63% | 1011.8 hPa | 0 mm | 0 m/s | 0 W/m² | - |
| 1777977609 | 17.22° C | 64% | 1011.8 hPa | 0 mm | 0.45 m/s, 140° | 0 W/m² | - |
| 1777977311 | 16.67° C | 65% | 1011.7 hPa | 0 mm | 0.45 m/s, 234° | 0 W/m² | - |
| 1777977009 | 16.11° C | 68% | 1011.7 hPa | 0 mm | 0.45 m/s, 158° | 0 W/m² | - |
| 1777976708 | 15.56° C | 67% | 1011.9 hPa | 0 mm | 0.45 m/s, 180° | 0 W/m² | - |
| 1777976409 | 15° C | 66% | 1011.9 hPa | 0 mm | 0 m/s | 0 W/m² | - |
| 1777976108 | 15° C | 66% | 1012.1 hPa | 0 mm | 0 m/s | 0 W/m² | - |
| 1777975808 | 15° C | 66% | 1012 hPa | 0 mm | 0 m/s | 0 W/m² | - |
| 1777975508 | 15° C | 65% | 1012.1 hPa | 0 mm | 0 m/s | 0 W/m² | - |
| 1777975214 | 15.56° C | 66% | 1012 hPa | 0 mm | 0 m/s | 0 W/m² | - |
| 1777974908 | 15.56° C | 66% | 1012.1 hPa | 0 mm | 0 m/s | 0 W/m² | - |
| 1777974608 | 15.56° C | 65% | 1011.8 hPa | 0 mm | 0 m/s | 0 W/m² | - |
| 1777974307 | 15.56° C | 66% | 1011.8 hPa | 0 mm | 0 m/s | 0 W/m² | - |
| 1777974008 | 15.56° C | 66% | 1011.8 hPa | 0 mm | 0 m/s | 0 W/m² | - |
| 1777973710 | 15.56° C | 67% | 1011.9 hPa | 0 mm | 0 m/s | 0 W/m² | - |
| 1777973408 | 15.56° C | 67% | 1011.8 hPa | 0 mm | 0 m/s | 0 W/m² | - |
| 1777973108 | 15.56° C | 67% | 1011.9 hPa | 0 mm | 0 m/s | 0 W/m² | - |
| 1777972809 | 15.56° C | 68% | 1011.8 hPa | 0 mm | 0 m/s | 0 W/m² | - |
| 1777972508 | 15° C | 69% | 1012 hPa | 0 mm | 0 m/s | 0 W/m² | - |
* Rain latest hour (hover to see other rain measurements)
** Current wind speed in m/s (hover to see current wind gust speed)